Weather in Fomino-Negachevka

Russia / Lipetsk Oblast     52°02′18″N   39°03′31″E
temp.,
°C
wind,
m/s
gust,
m/s
humid.,
%
clouds,
%
prec.,
mm/h
press.,
hPa
HPBL,
m
21 january, fri
fri2100:00−10s71694100 0.1 1012419
03:00−8s71695100 0.9 1010458
06:00−7sse71595100 1.1 1007490
09:00−7sse71595100 3.6 1006586
12:00−4sse71495100 1.3 1003594
15:00−1ssw61097100 2.0 1002778
18:00−3sw6119013 0.8 1003641
21:00−7ssw6139199 0.8 1005322
22 january, sat
sat2200:00−7s6139399 0.0 1006433
03:00−7s6139295 0.1 1006410
06:00−9s51195100 0.1 1007275
09:00−9s5119584 0.1 1008263
12:00−7ssw599388 0.1 1010341
15:00−6s479472 0.1 1011289
18:00−8s379799 0.1 1013149
21:00−8sse3696100 0.3 1015128
23 january, sun
sun2300:00−8sse259698 0.2 1017104
03:00−15ssw2210097 0.3 10189
06:00−16se119999 0.1 102113
09:00−16e11100100 0.1 10239
12:00−9ene2396100 0.0 1025129
15:00−8nne3695100 0.0 1025222
18:00−10nne4996100 0.0 1027198
21:00−9nne51294100 0.0 1027274
24 january, mon
mon2400:00−7nne61395100 0.3 1027380
03:00−8nne61595100 0.1 1030353
06:00−7ne61395100 0.3 1029350
09:00−6ne51195100 0.8 1030411
12:00−5ne5994100 0.1 1031489
15:00−5ene599190 0.1 1031448
18:00−10ne4996100 0.0 1032146
21:00−11nne4896100 0.0 1032148
25 january, tue
tue2500:00−14ne369796 0.0 103281
03:00−16ne349874 0.0 103153
06:00−18ne339963 0.0 103136
09:00−18ene349898 0.0 103154
12:00−10e349336 0.0 1029156
15:00−8e249456 0.0 1027156
18:00−14e229973 0.0 10279
21:00−17se2210099 0.0 10269